Date,TemperatureHighF,TemperatureAvgF,TemperatureLowF,DewpointHighF,DewpointAvgF,DewpointLowF,HumidityHigh,HumidityAvg,HumidityLow,PressureMaxIn,PressureMinIn,WindSpeedMaxMPH,WindSpeedAvgMPH,GustSpeedMaxMPH,PrecipitationSumIn
2013-2-8,71,63,56,59,55,50,86,75,58,30.16,30.01,10,5,14,0.00
2013-2-9,68,52,39,51,42,35,96,74,31,30.26,30.13,10,2,15,0.00
2013-2-10,69,59,45,68,57,44,98,94,83,30.16,29.98,11,3,19,0.16
2013-2-11,72,64,56,70,62,55,99,95,88,30.11,30.00,15,3,17,0.24
2013-2-12,70,60,56,69,59,55,99,97,93,30.06,29.76,13,3,21,1.03
2013-2-13,69,54,44,68,52,43,98,94,84,30.05,29.75,10,3,23,0.19
2013-2-14,57,45,38,44,40,37,98,85,55,30.16,30.02,7,1,9,0.00
2013-2-15,65,49,34,45,38,34,99,73,36,30.17,30.02,5,1,8,0.00
2013-2-16,51,45,34,41,29,17,84,56,29,30.27,30.05,19,5,24,0.00
2013-2-17,56,39,26,35,24,15,89,59,24,30.39,30.25,5,1,7,0.00
2013-2-18,64,48,31,49,39,29,95,73,47,30.31,30.07,12,2,20,0.00
2013-2-19,65,58,42,60,46,27,96,69,28,30.18,29.96,15,4,21,0.17
2013-2-20,58,45,33,34,28,22,85,56,29,30.26,30.10,10,2,19,0.00
2013-2-21,69,53,35,63,42,28,94,68,38,30.11,29.91,7,2,13,0.00
2013-2-22,68,66,64,67,65,63,99,96,92,29.96,29.85,10,2,16,1.82
2013-2-23,65,58,54,65,57,53,99,97,92,29.94,29.77,9,2,12,1.19
2013-2-24,72,59,48,53,50,45,99,74,40,29.99,29.84,9,2,12,0.08
2013-2-25,67,60,55,63,58,52,98,94,80,29.88,29.51,8,3,18,1.60
2013-2-26,65,57,50,64,48,40,98,74,47,29.90,29.50,11,3,18,0.24
2013-2-27,64,52,42,45,42,37,96,72,38,30.01,29.90,8,1,13,0.00
2013-2-28,57,48,40,46,36,-100,96,65,39,30.05,29.96,12,-8,20,0.00
2013-3-1,55,45,37,36,33,30,86,65,40,30.12,29.99,9,3,16,0.00
2013-3-2,46,38,31,31,27,24,90,66,44,30.17,30.07,14,5,21,0.00
2013-3-3,51,39,31,31,26,21,91,62,33,30.21,30.10,15,4,15,0.00
2013-3-4,64,48,29,49,39,28,96,74,43,30.20,30.01,11,2,17,0.00
2013-3-5,75,59,45,61,53,39,98,82,55,30.11,29.90,15,4,21,0.06
2013-3-6,56,45,36,39,31,26,93,60,34,30.26,30.10,14,5,22,0.00
2013-3-7,64,46,32,38,33,28,89,63,30,30.33,30.20,7,2,12,0.00
2013-3-8,72,53,37,43,36,30,87,59,22,30.31,30.18,5,1,10,0.00
2013-3-9,74,58,44,51,43,37,90,62,28,30.22,30.07,6,1,11,0.00
2013-3-10,73,62,53,61,54,43,93,74,62,30.09,29.99,8,2,17,0.00
2013-3-11,71,56,45,65,54,42,98,94,77,29.99,29.82,11,3,22,1.00
2013-3-12,62,49,38,42,38,35,92,68,38,30.16,29.94,12,5,18,0.00
2013-3-13,63,51,36,39,32,22,95,54,22,30.31,30.16,10,3,18,0.00
2013-3-14,63,47,34,38,28,21,89,51,21,30.43,30.27,9,2,13,0.00
2013-3-15,74,55,35,47,40,34,97,64,31,30.30,30.12,9,2,13,0.00
2013-3-16,76,61,45,56,51,44,97,72,39,30.14,29.98,14,2,16,0.00
2013-3-17,74,61,51,62,57,50,99,88,63,30.02,29.91,9,1,12,0.00
2013-3-18,81,69,62,69,64,57,97,85,66,29.94,29.78,13,3,19,0.00
2013-3-19,76,63,56,58,50,40,96,68,29,30.04,29.85,11,3,16,0.00
2013-3-20,64,56,41,39,33,28,77,42,28,30.11,29.97,11,4,13,0.00
2013-3-21,64,51,37,38,30,20,83,49,22,30.06,29.90,7,2,13,0.00
2013-3-22,66,56,48,50,38,28,67,51,32,29.96,29.88,5,1,10,0.00
2013-3-23,68,62,58,65,54,40,97,74,50,29.90,29.61,3,1,7,0.10
2013-3-24,81,67,49,70,56,28,99,70,27,29.87,29.53,15,5,26,0.02
2013-3-25,58,46,37,34,25,16,71,47,21,30.19,29.88,18,6,26,0.00
2013-3-26,54,43,32,28,24,21,76,52,30,30.35,30.19,14,5,19,0.00
2013-3-27,61,44,29,33,27,24,91,57,24,30.43,30.27,6,1,12,0.00
2013-3-28,72,52,32,39,31,24,94,53,17,30.36,30.22,7,1,10,0.00
2013-3-29,76,55,37,51,40,31,96,65,20,30.33,30.19,8,1,16,0.00
2013-3-30,78,62,47,58,52,46,98,75,36,30.23,30.04,10,2,14,0.00
2013-3-31,80,67,54,64,59,53,98,78,49,30.06,29.87,10,2,14,0.16
2013-4-1,73,62,52,62,57,51,98,86,51,30.05,29.89,10,2,11,0.00
2013-4-2,82,64,47,53,48,44,98,65,27,30.12,30.00,8,2,11,0.00
2013-4-3,60,57,52,57,52,49,96,85,69,30.08,29.81,11,3,15,0.55
2013-4-4,71,62,57,63,59,56,98,91,73,29.95,29.82,12,2,15,0.04
2013-4-5,66,56,51,56,50,47,97,83,54,30.08,29.89,11,5,15,0.04
2013-4-6,76,59,43,51,47,42,97,68,35,30.17,30.08,7,1,15,0.00
2013-4-7,80,64,45,63,55,45,98,77,46,30.15,30.03,9,2,13,0.00
2013-4-8,80,70,56,66,61,56,99,77,48,30.09,30.00,7,1,16,0.00
2013-4-9,85,71,59,65,62,59,99,75,44,30.10,29.98,9,1,16,0.00
2013-4-10,86,71,56,66,61,55,97,73,44,30.08,29.90,11,2,16,0.00
2013-4-11,81,72,64,74,69,63,96,90,76,29.90,29.58,11,3,26,0.91
2013-4-12,72,62,54,62,51,45,96,70,39,29.96,29.73,10,4,14,0.00
2013-4-13,80,63,46,55,48,40,97,63,24,30.04,29.89,10,2,13,0.00
2013-4-14,62,59,56,62,57,55,98,93,81,29.96,29.67,12,3,17,1.33
2013-4-15,82,70,59,72,66,59,98,88,70,30.04,29.84,7,1,9,0.00
2013-4-16,88,74,62,72,67,62,98,79,52,30.12,30.03,8,1,12,0.00
2013-4-17,86,74,66,73,68,63,98,83,59,30.13,30.01,7,1,10,0.00
2013-4-18,82,72,62,72,67,61,97,86,68,30.02,29.87,10,1,16,0.00
2013-4-19,74,60,48,72,58,47,96,92,85,30.12,29.80,14,4,20,0.45
2013-4-20,67,54,40,47,42,37,97,68,37,30.25,30.12,15,3,19,0.00
2013-4-21,74,60,45,50,44,40,86,59,35,30.21,30.11,10,2,16,0.00
2013-4-22,72,62,52,60,54,45,93,74,56,30.15,30.06,10,3,14,0.00
2013-4-23,78,66,55,62,58,54,98,80,53,30.13,30.03,6,1,9,0.00
2013-4-24,79,66,57,69,62,56,99,90,62,30.13,30.03,7,1,11,0.07
2013-4-25,77,64,55,64,55,47,98,77,40,30.27,30.12,8,3,11,0.00
2013-4-26,85,66,50,55,47,39,82,52,31,30.30,30.19,8,2,14,0.00
2013-4-27,84,69,54,67,61,53,97,78,50,30.23,30.06,8,1,14,0.00
2013-4-28,82,72,66,71,65,61,98,80,52,30.09,29.94,8,2,14,0.00
2013-4-29,84,70,63,67,62,59,95,80,47,29.99,29.87,7,2,11,0.00
2013-4-30,83,70,60,70,65,59,99,86,58,29.97,29.89,4,1,19,0.61
2013-5-1,70,68,66,67,65,64,96,92,85,29.98,29.88,10,2,19,0.38
2013-5-2,74,68,64,68,64,61,94,88,79,30.00,29.90,11,3,17,0.16
2013-5-3,71,66,52,66,63,51,96,88,79,29.95,29.81,13,4,19,0.11
2013-5-4,66,54,45,51,44,37,97,72,35,29.94,29.86,12,6,22,0.07
2013-5-5,71,57,45,57,45,38,98,70,38,29.97,29.83,11,3,19,0.00
2013-5-6,68,57,46,56,48,43,96,73,48,29.99,29.90,11,2,14,0.02
2013-5-7,76,64,53,59,56,52,98,78,51,30.03,29.93,8,2,13,0.01
2013-5-8,82,69,54,64,58,54,98,73,39,30.10,30.00,6,1,11,0.00
2013-5-9,86,72,57,66,62,56,98,72,44,30.14,30.05,6,2,10,0.00
2013-5-10,80,68,61,69,65,60,99,89,62,30.12,29.91,5,1,12,0.02
2013-5-11,76,67,60,68,65,59,98,91,75,30.05,29.93,6,1,9,0.12
2013-5-12,79,70,61,65,59,51,98,71,43,30.10,29.97,9,3,12,0.01
2013-5-13,78,64,47,52,44,36,86,54,25,30.26,30.10,10,2,14,0.00
2013-5-14,85,70,50,58,52,48,95,58,31,30.27,30.14,6,1,11,0.00
2013-5-15,87,70,54,63,56,53,98,67,35,30.21,30.05,9,1,9,0.00
2013-5-16,84,72,63,70,63,55,93,74,55,30.06,29.97,8,1,10,0.01
2013-5-17,88,75,66,71,68,65,99,82,53,30.05,29.98,10,2,12,0.01
2013-5-18,88,76,68,73,70,68,98,83,57,30.08,29.99,6,1,10,0.00
2013-5-19,89,76,66,73,70,66,98,83,57,30.05,29.98,5,1,9,0.00
2013-5-20,92,78,68,72,70,68,99,78,48,30.05,29.95,4,1,9,0.00
2013-5-21,93,78,68,74,69,65,99,76,39,30.01,29.87,7,1,14,0.00
2013-5-22,87,76,66,73,69,66,99,81,56,29.99,29.87,5,1,8,0.01
2013-5-23,91,79,67,72,66,61,96,69,37,30.03,29.93,6,1,10,0.03
2013-5-24,88,78,66,70,62,51,93,62,33,30.15,30.00,9,3,15,0.00
2013-5-25,90,72,54,58,50,44,79,50,20,30.23,30.13,6,1,12,0.00
2013-5-26,92,74,59,68,60,56,94,66,31,30.21,30.11,8,1,9,0.00
2013-5-27,92,77,66,70,61,49,98,64,26,30.17,30.06,9,1,12,0.00
2013-5-28,91,76,61,71,66,60,98,74,46,30.09,30.02,6,1,13,0.00
2013-5-29,93,78,66,73,68,65,98,74,46,30.07,30.00,12,2,13,0.00
2013-5-30,93,80,70,73,68,65,95,71,42,30.08,29.99,8,1,14,0.00
2013-5-31,92,78,70,73,70,67,93,76,50,30.07,29.99,7,1,12,0.00
2013-6-1,88,78,70,77,72,69,98,84,64,30.01,29.93,8,1,10,0.03
2013-6-2,96,79,70,75,72,68,98,82,44,29.98,29.83,5,1,14,0.76
2013-6-3,88,77,70,77,73,69,98,87,67,29.92,29.83,7,1,8,0.01
2013-6-4,91,78,70,77,73,70,99,86,54,29.95,29.88,6,0,18,1.58
2013-6-5,87,76,72,78,73,71,99,93,70,29.95,29.91,4,0,7,1.56
2013-6-6,86,75,65,75,70,65,98,85,64,29.96,29.70,11,2,19,0.01
2013-6-7,83,74,68,75,70,67,97,87,67,29.88,29.73,5,1,10,0.04
2013-6-8,90,78,67,77,72,67,99,82,59,29.99,29.88,6,0,10,0.01
2013-6-9,76,72,69,74,71,68,98,95,88,30.05,29.93,5,1,9,1.21
2013-6-10,85,75,70,78,73,69,99,93,73,30.07,29.97,5,0,9,0.48
2013-6-11,93,82,72,80,75,71,99,81,49,30.09,29.98,5,1,8,0.01
2013-6-12,94,84,73,80,75,72,99,78,49,30.07,29.97,4,1,8,0.00
2013-6-13,94,84,76,77,74,72,92,74,50,30.01,29.84,7,2,11,0.00
2013-6-14,91,82,75,77,72,69,89,74,50,29.93,29.83,5,2,12,0.00
2013-6-15,94,81,69,77,71,64,95,73,47,30.02,29.92,6,1,10,0.03
2013-6-16,94,83,75,79,76,74,98,82,54,30.05,29.97,5,1,9,0.00
2013-6-17,90,82,75,81,76,73,98,84,64,30.00,29.92,6,1,11,0.15
2013-6-18,91,80,72,78,74,72,98,84,56,29.99,29.87,5,1,13,0.95
2013-6-19,85,76,70,77,73,70,99,89,68,30.02,29.92,2,0,6,0.50
2013-6-20,90,79,70,77,72,68,99,81,48,30.09,29.99,5,1,9,0.00
2013-6-21,90,79,72,76,73,70,98,83,55,30.11,30.04,6,1,12,0.07
2013-6-22,92,79,69,75,72,68,98,80,47,30.11,30.00,6,1,8,0.00
2013-6-23,86,76,70,78,73,69,98,92,70,30.12,30.02,3,0,7,0.77
2013-6-24,90,80,73,81,75,72,99,86,61,30.15,30.06,2,0,9,0.50
2013-6-25,89,80,71,80,75,70,98,86,69,30.13,30.01,4,0,6,0.00
2013-6-26,93,81,72,79,75,71,99,83,55,30.08,29.96,3,0,7,0.00
2013-6-27,94,83,73,79,76,73,98,81,51,30.01,29.88,5,0,6,0.00
2013-6-28,94,82,73,80,77,71,97,86,60,29.91,29.74,4,1,14,0.50
2013-6-29,92,82,73,79,75,71,97,79,59,29.77,29.65,6,0,8,0.00
2013-6-30,89,80,71,76,72,67,97,79,50,29.76,29.68,3,0,7,0.00
2013-7-1,90,79,70,74,69,66,97,75,47,29.87,29.75,5,0,8,0.00
2013-7-2,92,79,68,76,71,67,98,78,51,30.00,29.86,1,0,7,0.00
2013-7-3,85,75,70,76,72,69,97,90,72,30.03,29.95,7,1,11,0.03
2013-7-4,81,75,72,76,72,70,98,91,78,30.03,29.92,7,1,14,0.13
2013-7-5,74,72,69,74,72,69,99,98,96,30.09,30.00,3,0,5,1.03
2013-7-6,78,73,69,76,72,69,100,98,91,30.06,30.00,4,0,5,0.43
2013-7-7,84,75,72,79,74,72,100,97,82,30.11,30.03,2,0,5,0.37
2013-7-8,89,77,71,79,74,71,99,93,70,30.17,30.09,4,0,7,0.02
2013-7-9,94,81,72,79,75,72,99,84,57,30.18,30.06,2,0,6,0.01
2013-7-10,89,78,73,81,75,72,98,91,71,30.09,29.96,3,0,8,0.12
2013-7-11,80,75,72,78,74,71,99,96,87,29.99,29.87,3,0,6,1.06
2013-7-12,93,78,68,79,73,66,100,87,60,29.91,29.82,5,0,13,1.68
2013-7-13,88,76,70,79,72,69,99,90,68,29.98,29.86,8,1,10,0.01
2013-7-14,86,76,68,78,72,67,98,88,71,30.03,29.91,7,1,9,0.12
2013-7-15,86,78,73,76,74,70,99,87,69,30.14,30.02,6,1,13,0.01
2013-7-16,90,79,71,77,73,69,97,83,58,30.18,30.09,13,2,13,0.27
2013-7-17,91,81,71,78,74,70,99,80,54,30.21,30.08,7,1,11,0.00
2013-7-18,91,77,70,78,73,68,98,87,62,30.14,30.00,7,1,13,0.23
2013-7-19,88,76,69,78,73,69,99,90,67,30.08,29.96,5,1,12,0.06
2013-7-20,88,76,72,80,74,71,99,94,74,30.01,29.91,2,0,7,0.60
2013-7-21,90,79,73,80,75,72,99,90,68,30.04,29.98,4,0,14,0.13
2013-7-22,88,77,71,79,74,71,99,92,70,30.05,29.97,5,0,18,0.69
2013-7-23,90,78,70,80,74,69,99,90,65,30.02,29.91,8,1,24,0.22
2013-7-24,89,78,70,80,75,69,100,91,74,29.93,29.86,6,1,12,0.32
2013-7-25,91,79,70,79,74,70,99,85,62,29.99,29.84,5,1,8,0.03
2013-7-26,92,81,70,78,73,70,99,80,49,30.03,29.94,4,0,7,0.00
2013-7-27,86,76,71,80,74,69,99,92,76,29.98,29.90,3,0,14,0.63
2013-7-28,94,80,73,82,76,72,99,88,59,29.99,29.87,3,0,17,1.28
2013-7-29,92,80,73,81,76,73,99,90,63,30.10,29.97,7,0,8,0.29
2013-7-30,95,83,73,82,77,73,99,83,56,30.15,30.03,1,0,7,0.01
2013-7-31,92,79,72,81,76,71,99,90,63,30.08,29.98,9,1,16,0.29
2013-8-1,92,78,72,82,76,72,100,92,66,30.00,29.91,3,0,8,1.04
2013-8-2,94,81,72,81,75,72,100,83,51,30.01,29.91,4,0,5,0.01
2013-8-3,94,82,74,81,76,72,99,84,51,30.05,29.97,5,0,7,0.00
2013-8-4,94,82,75,81,77,74,99,87,59,30.05,29.95,6,1,15,0.60
2013-8-5,93,82,73,79,75,73,99,83,53,30.02,29.93,7,1,9,0.00
2013-8-6,93,81,74,80,76,73,99,86,60,30.01,29.89,5,1,10,0.00
2013-8-7,97,82,71,79,74,71,99,79,52,29.98,29.88,4,1,9,0.00
2013-8-8,93,81,73,79,76,73,99,87,59,29.98,29.91,5,0,8,0.26
2013-8-9,94,81,74,82,77,73,98,87,60,30.05,29.94,3,1,7,0.05
2013-8-10,91,78,71,80,75,71,99,91,61,30.09,30.01,6,1,8,0.91
2013-8-11,90,80,72,81,76,72,99,88,66,30.14,30.05,5,0,7,0.16
2013-8-12,93,79,72,81,76,72,99,91,61,30.11,30.02,4,0,13,0.25
2013-8-13,92,78,73,82,75,72,100,91,68,30.03,29.93,5,1,15,0.02
2013-8-14,87,77,72,79,74,71,99,90,71,29.95,29.87,7,1,10,0.07
2013-8-15,88,78,74,78,75,73,99,90,65,29.97,29.89,5,1,10,0.15
2013-8-16,83,76,72,75,73,71,99,91,73,30.00,29.91,7,2,10,0.00
2013-8-17,75,72,71,73,71,70,99,97,94,30.02,29.94,6,2,9,1.05
2013-8-18,78,73,69,76,72,69,99,98,93,30.07,29.99,6,1,11,0.85
2013-8-19,94,80,69,80,74,69,100,86,55,30.05,29.95,6,0,7,0.01
2013-8-20,88,76,71,79,74,71,99,93,71,30.09,29.98,7,1,10,0.19
2013-8-21,89,75,70,80,72,69,99,92,66,30.14,30.04,6,1,14,0.08
2013-8-22,89,78,69,79,73,69,99,88,63,30.10,29.96,7,2,15,0.13
2013-8-23,88,77,71,77,74,70,99,90,68,30.03,29.93,4,1,8,0.01
2013-8-24,88,78,69,77,74,69,99,88,69,30.12,30.00,8,1,11,0.00
2013-8-25,87,78,71,77,73,70,98,87,67,30.20,30.11,8,2,11,0.00
2013-8-26,86,77,68,71,66,63,90,72,50,30.20,30.09,8,2,12,0.00
2013-8-27,87,74,63,70,66,62,97,77,51,30.12,30.01,6,1,11,0.00
2013-8-28,90,77,66,74,69,65,97,78,49,30.07,29.98,7,1,8,0.00
2013-8-29,92,79,68,74,71,68,99,78,48,30.06,29.95,4,1,8,0.00
2013-8-30,93,81,72,77,73,69,94,77,54,30.01,29.88,8,1,10,0.00
2013-8-31,89,77,73,80,74,72,98,92,68,29.94,29.86,5,1,16,0.43
2013-9-1,92,78,70,80,74,70,99,90,68,29.93,29.84,4,1,9,0.08
2013-9-2,91,78,71,80,75,71,100,90,65,29.97,29.87,7,1,10,0.10
2013-9-3,91,76,70,80,73,70,100,94,66,29.99,29.88,12,1,22,0.64
2013-9-4,93,78,68,80,74,68,100,89,60,30.07,29.95,4,0,9,0.56
2013-9-5,92,80,70,79,75,70,100,86,61,30.11,30.01,7,1,9,0.01
2013-9-6,91,80,71,75,72,68,98,80,50,30.09,29.98,4,1,8,0.00
2013-9-7,92,78,66,78,72,66,99,84,54,30.05,29.95,3,0,6,0.12
2013-9-8,92,80,69,77,73,69,99,82,52,29.99,29.92,4,0,7,0.01
2013-9-9,93,80,70,78,73,70,99,81,50,30.04,29.95,5,1,8,0.00
2013-9-10,92,80,71,79,73,70,98,79,53,30.12,30.02,8,1,12,0.00
2013-9-11,92,79,69,74,70,68,98,78,51,30.13,30.02,8,1,14,0.00
2013-9-12,92,79,69,74,70,65,98,77,42,30.05,29.90,7,1,10,0.00
2013-9-13,93,80,68,76,71,67,99,78,43,29.93,29.79,4,1,8,0.00
2013-9-14,85,76,69,73,68,63,93,76,52,29.98,29.85,6,2,8,0.00
2013-9-15,93,78,64,75,69,61,93,74,52,30.06,29.98,5,1,7,0.00
2013-9-16,93,79,70,77,73,69,99,83,53,30.08,29.97,7,1,9,0.00
2013-9-17,93,79,70,77,73,68,98,84,54,30.07,29.96,7,1,10,0.06
2013-9-18,85,77,71,74,72,70,98,87,66,30.09,30.01,11,2,13,0.04
2013-9-19,91,78,68,74,70,66,95,78,51,30.09,29.98,5,1,11,0.00
2013-9-20,93,78,67,78,72,65,96,83,54,30.02,29.85,6,1,10,0.00
2013-9-21,81,76,73,78,75,72,99,96,90,29.86,29.72,6,0,12,1.08
2013-9-22,80,72,68,73,70,67,98,90,74,29.80,29.73,7,2,10,0.01
2013-9-23,88,75,68,77,72,68,99,91,65,29.89,29.78,6,1,9,0.12
2013-9-24,85,76,70,79,74,69,99,95,81,29.89,29.77,10,1,28,2.56
2013-9-25,84,75,69,76,72,68,100,91,70,29.80,29.73,7,1,9,0.01
2013-9-26,84,72,65,74,69,64,100,91,68,29.95,29.79,7,2,10,0.00
2013-9-27,82,72,62,69,65,61,99,81,55,30.05,29.94,9,2,13,0.01
2013-9-28,82,70,60,68,63,58,91,77,54,30.10,30.00,10,2,13,0.00
2013-9-29,82,70,60,68,63,57,92,79,53,30.06,29.95,5,1,10,0.00
2013-9-30,83,72,66,71,67,63,95,84,63,30.00,29.92,6,1,11,0.00
2013-10-1,86,74,65,72,68,65,98,84,57,30.07,29.97,6,1,9,0.00
2013-10-2,82,74,68,75,70,66,95,88,74,30.07,30.00,5,1,10,0.01
2013-10-3,88,77,67,76,70,65,97,83,58,30.07,29.98,4,0,10,0.00
2013-10-4,91,78,69,75,72,69,99,83,56,30.07,29.99,4,1,8,0.00
2013-10-5,90,78,72,77,73,71,99,87,59,30.04,29.93,6,1,8,0.00
2013-10-6,78,73,69,75,72,69,99,97,87,29.95,29.80,2,0,8,0.50
2013-10-7,76,66,59,70,58,53,99,77,46,29.97,29.83,12,5,18,0.01
2013-10-8,80,65,52,68,59,50,96,81,55,30.00,29.93,6,2,8,0.00
2013-10-9,75,67,62,68,64,61,95,90,76,30.11,30.00,7,3,11,0.00
2013-10-10,84,69,58,70,63,58,99,84,51,30.11,29.99,5,1,8,0.00
2013-10-11,84,70,60,70,63,59,100,82,45,30.06,29.95,6,1,9,0.01
2013-10-12,86,71,60,73,64,59,100,83,47,30.08,29.99,6,1,10,0.00
2013-10-13,84,72,62,68,64,57,99,77,42,30.15,30.05,8,1,11,0.00
2013-10-14,83,72,61,69,64,60,96,78,51,30.12,30.01,8,2,11,0.00
2013-10-15,82,69,59,67,63,58,98,82,55,30.07,29.95,6,1,8,0.00
2013-10-16,88,71,59,69,64,58,99,82,44,30.03,29.91,3,0,8,0.00
2013-10-17,82,72,66,76,70,64,99,91,78,29.96,29.87,7,2,12,0.32
2013-10-18,76,68,63,66,64,61,97,87,69,30.02,29.91,8,2,13,0.00
2013-10-19,66,63,61,63,61,59,95,92,85,30.02,29.90,5,2,10,0.05
2013-10-20,74,62,53,60,57,53,99,86,58,30.05,29.97,9,2,10,0.01
2013-10-21,73,63,56,63,58,54,93,84,66,30.06,29.96,5,1,7,0.00
2013-10-22,78,67,62,64,61,55,98,82,54,29.99,29.86,5,1,8,0.01
2013-10-23,71,60,50,56,48,41,96,68,34,30.11,29.93,10,3,15,0.00
2013-10-24,77,59,43,52,46,41,93,67,33,30.22,30.11,6,1,8,0.00
2013-10-25,65,54,44,52,43,35,96,69,33,30.38,30.19,10,2,16,0.00
2013-10-26,70,52,38,47,38,32,94,64,28,30.32,30.18,4,1,8,0.00
2013-10-27,77,58,42,58,49,42,98,76,42,30.18,30.09,4,0,6,0.00
2013-10-28,81,64,50,62,57,50,98,80,47,30.21,30.10,4,0,7,0.00
2013-10-29,82,65,53,62,58,53,99,81,45,30.27,30.18,5,1,8,0.00
2013-10-30,84,66,55,69,62,54,99,88,54,30.23,30.10,3,0,10,0.00
2013-10-31,82,70,61,73,67,61,99,91,68,30.10,29.87,11,2,17,0.01
2013-11-1,73,69,59,73,67,56,99,95,83,29.88,29.77,7,1,10,0.21
2013-11-2,75,61,52,58,51,45,93,72,41,30.10,29.88,9,2,14,0.00
2013-11-3,67,54,43,47,43,40,92,70,38,30.22,30.09,11,3,14,0.00
2013-11-4,73,58,43,55,48,40,90,71,50,30.30,30.19,10,2,13,0.00
2013-11-5,76,63,53,60,52,44,80,69,57,30.30,30.17,11,3,14,0.00
2013-11-6,79,64,55,68,59,50,98,83,67,30.18,30.07,5,1,7,0.00
2013-11-7,65,58,47,65,55,43,99,91,74,30.23,30.02,13,4,19,0.49
2013-11-8,64,51,40,43,38,35,85,66,36,30.30,30.18,11,4,18,0.00
2013-11-9,71,56,42,55,48,39,92,74,55,30.26,30.17,6,1,10,0.00
2013-11-10,73,60,52,57,54,49,96,80,53,30.26,30.16,8,2,11,0.00
2013-11-11,75,60,45,53,47,43,94,67,36,30.23,30.12,6,1,9,0.00
2013-11-12,49,44,40,40,30,22,72,58,48,30.42,30.33,12,8,21,0.00
2013-11-13,54,40,32,27,22,20,78,50,27,30.50,30.40,17,5,21,0.00
2013-11-14,65,47,28,46,35,23,85,66,49,30.43,30.21,5,1,9,0.00
2013-11-15,67,60,54,64,56,46,97,88,71,30.20,30.02,5,1,8,0.05
2013-11-16,74,65,58,67,62,57,98,92,77,30.12,30.01,4,1,7,0.01
2013-11-17,81,72,66,74,70,65,99,92,73,30.03,29.90,7,2,10,0.07
2013-11-18,79,70,56,73,61,39,99,75,45,30.05,29.92,7,2,14,0.01
2013-11-19,64,53,44,41,39,36,81,61,38,30.12,30.01,9,3,15,0.00
2013-11-20,68,54,40,56,47,36,91,77,62,30.16,30.05,8,2,14,0.00
2013-11-21,66,59,52,60,55,49,94,86,80,30.25,30.17,9,2,11,0.00
2013-11-22,73,67,61,67,63,59,96,89,79,30.24,30.13,4,0,7,0.00
2013-11-23,67,60,50,64,58,42,97,90,72,30.25,30.14,13,4,16,0.00
2013-11-24,53,46,39,41,28,23,72,52,33,30.38,30.24,13,6,22,0.00
2013-11-25,56,48,39,52,38,27,91,70,59,30.33,29.95,15,3,15,0.06
2013-11-26,64,53,44,63,52,43,98,96,90,29.95,29.69,15,4,21,0.74
2013-11-27,46,39,31,42,28,23,97,65,48,30.35,29.84,11,5,19,0.10
2013-11-28,51,35,25,30,24,21,87,66,32,30.47,30.35,8,2,10,0.00
2013-11-29,60,42,27,33,28,24,91,63,28,30.53,30.41,10,2,12,0.00
2013-11-30,66,46,30,45,37,27,95,74,45,30.46,30.27,4,0,7,0.00
2013-12-1,63,50,38,51,45,37,98,84,55,30.27,30.01,4,0,6,0.00
2013-12-2,72,57,43,55,51,42,99,82,54,30.03,29.79,5,1,9,0.03
2013-12-3,78,65,52,66,60,51,99,86,56,29.86,29.76,9,2,15,0.01
2013-12-4,77,68,61,73,67,61,99,97,84,29.97,29.85,6,1,13,0.53
2013-12-5,81,74,68,75,72,68,99,94,79,30.05,29.96,14,3,16,0.04
2013-12-6,79,73,57,74,71,57,98,93,82,30.11,29.98,12,3,15,0.12
2013-12-7,57,45,43,56,44,42,97,96,94,30.28,30.12,11,5,15,0.01
2013-12-8,75,60,44,70,58,44,100,95,78,30.24,30.04,9,2,17,0.00
2013-12-9,72,66,56,70,64,55,98,93,81,30.10,30.04,8,2,13,0.00
2013-12-10,61,46,37,61,44,35,100,92,77,30.34,30.00,16,4,21,0.36
2013-12-11,62,46,33,49,39,31,94,79,55,30.39,30.29,5,2,11,0.00
2013-12-12,56,45,34,41,32,24,84,63,30,30.49,30.36,12,4,15,0.00
2013-12-13,58,44,30,41,32,23,80,64,40,30.37,30.07,5,1,6,0.00
2013-12-14,74,62,50,69,59,42,97,88,74,30.08,29.82,13,2,18,0.31
2013-12-15,57,43,33,56,39,31,96,85,73,30.27,29.91,14,6,19,0.01
2013-12-16,60,40,30,39,34,29,97,81,40,30.34,30.24,5,1,9,0.00
2013-12-17,64,45,31,40,36,30,99,75,33,30.33,30.20,6,1,11,0.00
2013-12-18,63,47,36,41,37,33,95,74,36,30.37,30.26,7,1,11,0.00
2013-12-19,68,51,35,57,45,32,96,81,59,30.29,30.15,4,1,9,0.00
2013-12-20,73,62,50,67,60,49,98,91,77,30.15,30.04,7,1,11,0.01
2013-12-21,75,71,65,72,70,64,99,95,89,30.04,29.87,15,4,24,0.05
2013-12-22,74,65,54,72,64,53,98,96,82,30.09,29.86,17,6,22,2.02
2013-12-23,54,48,39,53,46,34,98,92,81,30.37,30.04,14,5,20,0.02
2013-12-24,50,38,29,34,30,26,94,74,46,30.48,30.36,11,4,18,0.00
2013-12-25,50,38,27,36,29,23,91,72,44,30.40,30.27,7,2,9,0.00
2013-12-26,53,43,34,40,37,32,93,78,59,30.35,30.26,8,2,12,0.00
2013-12-27,58,48,39,40,37,35,90,69,46,30.39,30.28,12,3,15,0.00
2013-12-28,50,46,44,48,44,39,99,93,65,30.29,29.90,9,4,16,1.63
2013-12-29,53,46,40,50,45,40,99,96,86,30.11,29.89,8,2,12,0.00
2013-12-30,57,46,37,50,45,36,99,94,78,30.26,30.10,3,0,4,0.01
2013-12-31,49,44,41,47,41,38,96,91,86,30.41,30.26,8,3,12,0.00
2014-1-1,60,49,43,55,47,41,97,93,82,30.33,30.08,3,0,5,0.12
2014-1-2,58,49,34,55,46,28,99,88,69,30.25,29.91,18,5,27,0.38